Location: Anjeux
(47.8815°N, 6.2076°E)
Time: 13:31:23
(UTC+00:00)

N. Korean satellite - Visible Passes

Search period start: 24 September 2021 00:00
Search period end: 04 October 2021 00:00
Orbit: 448 x 498 km, 97.3° (Epoch: 23 September)

Date Brightness Start Highest point End Pass type
(mag) Time Alt. Az. Time Alt. Az. Time Alt. Az.
24 Sep 9.7 04:00:51 10° NE 04:03:13 17° E 04:05:36 10° SE visible
26 Sep 7.9 04:37:39 10° NNE 04:41:05 44° E 04:44:32 10° S visible
27 Sep 9.4 04:10:20 10° NE 04:13:09 22° E 04:15:59 10° SE visible
28 Sep 10.1 03:44:10 10° ENE 03:45:07 11° E 03:46:03 10° ESE visible
29 Sep 7.2 04:47:22 10° NNE 04:50:54 60° E 04:54:28 10° S visible
30 Sep 8.9 04:19:51 10° NE 04:22:59 28° E 04:26:08 10° SSE visible
01 Oct 9.9 03:52:58 10° ENE 03:54:57 14° E 03:56:56 10° SE visible
02 Oct 6.7 04:57:00 10° NNE 05:00:38 80° ESE 05:04:15 10° S visible
03 Oct 8.4 04:29:21 10° NNE 04:32:43 36° E 04:36:06 10° SSE visible
